Regional Weather Roundup
Issued by NWS

Home | Current Version | Previous Version | Graphics & Text | Print | Product List | Glossary Off
Versions: 1 2 3 4 5 6 7 8 9 10 11 12 13 14 15 16 17 18 19 20 21 22 23 24 25 26 27 28 29 30 31 32 33 34 35 36 37 38 39 40 41 42 43 44 45 46 47 48 49 50

000
ASUS43 KMPX 211201
RWRMN
WEATHER ROUNDUP FOR MINNESOTA
NATIONAL WEATHER SERVICE TWIN CITIES/CHANHASSEN MN
700 AM CDT MON APR 21 2014


NOTE: "FAIR" INDICATES FEW OR NO CLOUDS BELOW 12,000 FEET WITH NO
SIGNIFICANT WEATHER AND/OR OBSTRUCTIONS TO VISIBILITY. N/A MEANS
CURRENT SKY AND/OR WEATHER CONDITIONS ARE NOT AVAILABLE.

MNZ060>063-068>070-211300-
   Twin Cities Metro

CITY           SKY/WX    TMP DP  RH WIND       PRES   REMARKS
TWIN CITIES    CLOUDY    57  55  93 NW12      29.92R
6HR MIN TEMP:  57; 6HR MAX TEMP:  60; 6HR PCP:  0.20;

ST PAUL        CLOUDY    58  55  90 NW12      29.92R
CRYSTAL        CLOUDY    56  48  74 W6        29.91R
BLAINE         CLOUDY    55  52  88 W3        29.91S
EDEN PRAIRIE   CLOUDY    57  55  93 NW8       29.92R
6HR MIN TEMP:  57; 6HR MAX TEMP:  61; 6HR PCP:  0.17;

LAKEVILLE      LGT RAIN  55  52  88 SW7G16    29.90R
SOUTH ST PAUL  CLOUDY    57  56  94 NW6       29.91R
LAKE ELMO      FAIR      57  55  94 NW6       29.91R
$$
MNZ001>005-007-008-013>017-022>024-027-028-211300-
   Northwest Minnesota

CITY           SKY/WX    TMP DP  RH WIND       PRES   REMARKS
BEMIDJI        CLEAR     47  35  62 W18       29.90S
HALLOCK        CLOUDY    36  34  93 NW18      29.98R
ROSEAU         CLOUDY    36  32  87 NW13G22   29.92R
WARROAD        CLOUDY    36  32  87 W16       29.91R
THIEF RVR FALL CLOUDY    36  30  80 NW16G22   29.98R
CROOKSTON      MOCLDY    37  34  87 N22G29    30.01R
FOSSTON        CLEAR     43  34  70 W14       29.96R
DETROIT LAKES  CLEAR     46  34  61 NW15      29.97S
PARK RAPIDS    CLEAR     47  35  63 NW17      29.92S
$$
MNZ006-009>011-018-025>026-211300-
   North Central Minnesota

CITY           SKY/WX    TMP DP  RH WIND       PRES   REMARKS
BAUDETTE       PTCLDY    41  35  79 NW9       29.87R
FLAG ISLAND    CLOUDY    34  30  86 NW23G31   29.85R WCI  22
INTL FALLS     PTCLDY    46  34  62 W8        29.82S
6HR MIN TEMP:  41; 6HR MAX TEMP:  49; 6HR PCP: TRACE;

WASKISH        CLEAR     39  34  81 SW9       29.88R
BIG FORK       CLEAR     41  30  65 SW3       29.87R
LONGVILLE      CLEAR     37  34  87 SW3       29.89F
GRAND RAPIDS   MOCLDY    52  30  43 SW6       29.88S
CRANE LAKE     CLOUDY    41  34  75 S3        29.84F
ORR            MOCLDY    48  28  46 SW3       29.82S
COOK           CLOUDY    48  30  49 SW5       29.85S
$$
MNZ012-019>021-037-211300-
   Northeast Minnesota

CITY           SKY/WX    TMP DP  RH WIND       PRES   REMARKS
DULUTH         PTCLDY    42  29  59 CALM      29.87F
6HR MIN TEMP:  42; 6HR MAX TEMP:  49;

ELY            CLOUDY    46  27  46 S6        29.85F
HIBBING        PTCLDY    38  30  73 CALM      29.87S
EVELETH        MOCLDY    36  32  87 CALM      29.87F
DULUTH HARBOR  PTCLDY    36  32  87 CALM      29.89F
SILVER BAY     PTCLDY    32  30  93 CALM      29.86F
GRAND MARAIS     N/A     35  31  85 CALM      29.88S
G MARAIS ARPRT MOCLDY    43  25  49 CALM      29.87S
$$
MNZ029>031-032-039>041-046>048-054>057-064-211300-
   West Central Minnesota

CITY           SKY/WX    TMP DP  RH WIND       PRES   REMARKS
FERGUS FALLS   CLEAR     45  32  61 NW15      29.96R
WHEATON        CLEAR     48  37  66 W10       30.02R
MORRIS         CLEAR     45  36  70 CALM      29.97R
ALEXANDRIA     CLEAR     50  34  54 NW9       29.96S
ELBOW LAKE     FAIR      42  34  75 NW9       29.98R
WADENA         CLEAR     48  34  57 W6        29.94R
GLENWOOD       CLEAR     46  36  66 NW7       29.96S
APPLETON       CLEAR     48  36  61 NW10      29.98R
BENSON         CLEAR     43  36  75 N6        29.98R
ORTONVILLE     CLEAR     48  32  53 NW9       30.00R
MADISON        CLEAR     52  37  58 NW13      29.99R
WILLMAR        FAIR      50  39  66 NW7       29.97R
$$
MNZ033>034-036-042>043-049>051-058-059-211300-
   Central Minnesota

CITY           SKY/WX    TMP DP  RH WIND       PRES   REMARKS
ST CLOUD       PTCLDY    52  36  54 NW8       29.90S
6HR MIN TEMP:  47; 6HR MAX TEMP:  58;

SAUK CENTRE    FAIR      49  35  58 NW5       29.95R
PAYNESVILLE    CLOUDY    54  37  52 CALM      29.95R
AITKIN         CLOUDY    43  34  70 W3        29.89S
PINE RIVER     CLEAR     41  34  75 CALM      29.94F
BRAINERD       PTCLDY    57  33  40 W7        29.92S
STAPLES        CLEAR     41  34  75 W7        29.93S
LONG PRAIRIE   FAIR      48  34  57 W6        29.95R
LITTLE FALLS   PTCLDY    43  34  70 CALM      29.93R
LITCHFIELD     CLOUDY    55  50  82 NW5       29.94R
BUFFALO        DRIZZLE   53  48  82 CALM      29.92F
MAPLE LAKE     MOCLDY    52  48  87 W3        29.93R
$$
MNZ037-044-045-052-053-211300-
   East Central Minnesota

CITY           SKY/WX    TMP DP  RH WIND       PRES   REMARKS
PRINCETON      PTCLDY    45  41  87 CALM      29.91S
MORA           CLEAR     39  32  75 CALM      29.91S
CAMBRIDGE      PTCLDY    48  39  71 S5        29.88S
RUSH CITY      MOCLDY    45  38  75 CALM      29.89F
MOOSE LAKE     CLEAR     36  32  87 CALM      29.87F
HINCKLEY       FAIR      41  37  87 CALM      29.88F
CLOQUET        CLEAR     37  30  75 W3        29.88S
MCGREGOR       CLEAR     39  32  75 CALM      29.90S
$$
MNZ071>073-080-081-089-090-097-098-211300-
   Southwest Minnesota

CITY           SKY/WX    TMP DP  RH WIND       PRES   REMARKS
MONTEVIDEO     CLEAR     48  37  66 N9        29.98R
GRANITE FALLS  CLEAR     49  39  66 NW10      29.99R
CANBY          CLEAR     49  36  61 NW9       30.00S
MARSHALL       PTCLDY    50  36  57 NW13      29.98R
REDWOOD FALLS  PTCLDY    55  51  86 NW10      29.94R
OLIVIA         PTCLDY    52  46  82 NW6       29.95R
PIPESTONE      PTCLDY    52  37  58 N10       29.98R
WINDOM         CLOUDY    55  54  94 NW5       29.95R FOG
WORTHINGTON    CLOUDY    54  46  76 N8        29.98R
JACKSON        CLOUDY    59  52  77 NW3       29.96R
TRACY          PTCLDY    52  40  63 NW14      29.97R
SLAYTON        MOCLDY    52  37  56 N20       29.97R
$$
MNZ065>067-074>077-082>085-091>093-211300-
   South Central Minnesota

CITY           SKY/WX    TMP DP  RH WIND       PRES   REMARKS
MANKATO        CLOUDY    57  54  88 SE15      29.92F
NEW ULM          N/A     55  55 100 CALM      29.93R FOG
ST JAMES       CLOUDY    59  54  82 W16       29.93R
FAIRMONT       CLOUDY    57  54  88 W16       29.95R
GLENCOE        CLOUDY    57  51  80 N3        29.92F
FARIBAULT      LGT RAIN  57  54  88 S8        29.94F
OWATONNA       RAIN      55  54  94 S3        29.97R
WASECA         LGT RAIN  55  54  94 E10       29.97R
ALBERT LEA     RAIN      57  55  94 E3        29.94F
$$
MNZ078>079-086>088-094>096-211300-
   Southeast Minnesota

CITY           SKY/WX    TMP DP  RH WIND       PRES   REMARKS
ROCHESTER      LGT RAIN  55  52  89 NW12      29.96R
6HR MIN TEMP:  55; 6HR MAX TEMP:  59; 6HR PCP:  0.38;

RED WING       RAIN      57  54  88 SW5       29.89S
STANTON        CLOUDY    57  53  85 S14       29.88F
DODGE CENTER   RAIN      57  55  94 N3        29.95F
WINONA           N/A    N/A N/A N/A MISG        N/A
AUSTIN         CLOUDY    57  55  94 N3        29.96R
PRESTON        CLOUDY    57  54  88 NW10      29.95R
$$
ABBREVIATIONS USED IN REMARKS
   TC - TEMPERATURES IN CELSIUS
  WCI - WIND CHILL INDEX
   HX - HEAT INDEX
  VSB - VISIBILITY
$$


USA.gov is the U.S. government's official web portal to all federal, state and local government web resources and services.